Flag for U.S.A. Weather past 2 weeks in Fall River, Massachusetts, U.S.A.

Now
77 °F

Sunny.


Feels Like: 79 °F
Forecast: 58 / 84 °F
Wind: 10 mph from Southwest

Location: New Bedford Regional Airport

Current Time: Jul 5, 2015 at 7:37:23 PM

Latest Report: Jul 5, 2015 at 6:53 PM


Visibility: 10 mi

Pressure: 30.07 "Hg

Humidity: 64%

Dew point: 64 °F

Location of Fall RiverLocation

Historic Weather in Fall River — Graph

°F

Fall River temperature yesterday

Maximum temperature yesterday: 74 °F (at 2:53 PM)
Minimum temperature yesterday: 55 °F (at 11:53 PM)
Average temperature yesterday: 65 °F

Past Weeks' High & Low Weather Summary

 TemperatureHumidityPressure
High84 °F (Jun 22, 12:53 PM)100% (Jun 22, 12:53 AM)30.17 "Hg (Jun 22, 12:53 AM)
Low47 °F (Jun 27, 3:53 AM)36% (Jul 3, 11:53 AM)29.61 "Hg (Jun 21, 5:53 PM)
Average68 °F75%29.91 "Hg
* Reported Jun 20 5:53 PM — Jul 5 5:53 PM, Fall River, Weather by CustomWeather, © 2015

Note: Actual official high and low records may vary slightly from our data, if they occured in-between our weather recording intervals... More about our weather records

Advertising

Fall River weather history for previous 24 hours

 ConditionsComfort  
Time TempWeatherWind HumidityBarometerVisibility
5:53 PM
Sun, Jul 5
78 °FSunny.12 mph62%30.06 "Hg10 mi
4:53 PM80 °FSunny.12 mph56%30.06 "Hg10 mi
3:53 PM80 °FSunny.15 mph56%30.06 "Hg10 mi
2:53 PM82 °FScattered clouds.15 mph55%30.05 "Hg10 mi
1:53 PM82 °FPassing clouds.8 mph49%30.06 "Hg10 mi
12:53 PM81 °FPassing clouds.7 mph51%30.07 "Hg10 mi
11:53 AM80 °FSunny.7 mph52%30.06 "Hg10 mi
10:53 AM78 °FSunny.5 mph56%30.06 "Hg10 mi
9:53 AM75 °FSunny.6 mph62%30.07 "Hg10 mi
8:53 AM73 °FSunny.7 mph64%30.07 "Hg10 mi
7:53 AM68 °FSunny.9 mph76%30.06 "Hg10 mi
6:53 AM63 °FSunny.5 mph87%30.04 "Hg9 mi
5:53 AM53 °FFog.No wind93%30.02 "Hg5 mi
4:53 AM52 °FFog.No wind97%30.01 "Hg6 mi
3:53 AM53 °FClear.No wind96%30.00 "Hg9 mi
2:53 AM53 °FClear.No wind96%30.00 "Hg9 mi
1:53 AM53 °FClear.No wind93%30.00 "Hg10 mi
12:53 AM54 °FClear.No wind90%29.99 "Hg10 mi
11:53 PM
Sat, Jul 4
55 °FClear.No wind90%29.99 "Hg10 mi
10:53 PM56 °FClear.No wind90%29.98 "Hg10 mi
9:53 PM56 °FClear.No wind90%29.98 "Hg10 mi
8:53 PM61 °FSunny.No wind72%29.94 "Hg10 mi
7:53 PM67 °FSunny.3 mph53%29.93 "Hg10 mi
Weather by CustomWeather, © 2015

See weather overviewHow to use our weather pages